Hourly Weather Klatka

Today, 27 July, Tuesday

Time Temperature Precipitation Wind Pressure Humidity
00:00 +19°C° 0.3 mm 3 mps 746 mmHg 85%
01:00 +18°C° 0.3 mm 2 mps 747 mmHg 92%
02:00 +19°C° 0.4 mm 2 mps 747 mmHg 92%
03:00 +19°C° 0.4 mm 2 mps 747 mmHg 92%
04:00 +19°C° 0.4 mm 2 mps 747 mmHg 91%
05:00 +19°C° 0 mm 2 mps 747 mmHg 88%
06:00 +20°C° 0 mm 3 mps 747 mmHg 84%
07:00 +21°C° 0 mm 3 mps 747 mmHg 80%
08:00 +22°C° 0 mm 3 mps 747 mmHg 72%
09:00 +25°C° 0 mm 3 mps 748 mmHg 64%
10:00 +27°C° 0 mm 3 mps 748 mmHg 55%
11:00 +28°C° 0 mm 3 mps 748 mmHg 52%
12:00 +29°C° 0 mm 3 mps 748 mmHg 48%
13:00 +30°C° 0 mm 3 mps 748 mmHg 45%
14:00 +30°C° 0 mm 4 mps 748 mmHg 42%
15:00 +32°C° 0 mm 4 mps 747 mmHg 40%
16:00 +32°C° 0 mm 4 mps 747 mmHg 37%
17:00 +29°C° 0 mm 3 mps 747 mmHg 44%
18:00 +28°C° 0 mm 2 mps 747 mmHg 51%
19:00 +26°C° 0 mm 2 mps 747 mmHg 58%
20:00 +24°C° 0.2 mm 2 mps 747 mmHg 63%
21:00 +23°C° 0.2 mm 2 mps 747 mmHg 68%
22:00 +21°C° 0.2 mm 2 mps 748 mmHg 72%
23:00 +21°C° 0 mm 1 mps 748 mmHg 72%

Tomorrow, 28 July, Wednesday

Time Temperature Precipitation Wind Pressure Humidity
00:00 +21°C° 0 mm 1 mps 748 mmHg 72%
01:00 +21°C° 0 mm 1 mps 747 mmHg 72%
02:00 +20°C° 0 mm 1 mps 747 mmHg 74%
03:00 +18°C° 0 mm 0 mps 747 mmHg 75%
04:00 +18°C° 0 mm 0 mps 747 mmHg 76%
05:00 +19°C° 0.1 mm 0 mps 747 mmHg 74%
06:00 +20°C° 0.1 mm 0 mps 747 mmHg 72%
07:00 +23°C° 0.1 mm 1 mps 747 mmHg 70%
08:00 +23°C° 0 mm 1 mps 747 mmHg 70%
09:00 +24°C° 0 mm 1 mps 747 mmHg 69%
10:00 +24°C° 0 mm 1 mps 747 mmHg 68%
11:00 +25°C° 0 mm 1 mps 747 mmHg 65%
12:00 +25°C° 0 mm 1 mps 747 mmHg 62%
13:00 +26°C° 0 mm 1 mps 747 mmHg 58%
14:00 +27°C° 0 mm 1 mps 747 mmHg 55%
15:00 +28°C° 0 mm 1 mps 747 mmHg 52%
16:00 +28°C° 0 mm 2 mps 746 mmHg 49%
17:00 +26°C° 3 mm 2 mps 747 mmHg 63%
18:00 +22°C° 3 mm 3 mps 747 mmHg 76%
19:00 +20°C° 3 mm 4 mps 747 mmHg 90%
20:00 +19°C° 0.1 mm 4 mps 748 mmHg 90%
21:00 +19°C° 0.1 mm 3 mps 748 mmHg 89%
22:00 +19°C° 0.1 mm 3 mps 748 mmHg 89%
23:00 +18°C° 0 mm 3 mps 748 mmHg 90%

Day after tomorrow, 29 July, Thursday

Time Temperature Precipitation Wind Pressure Humidity
00:00 +17°C° 0 mm 3 mps 748 mmHg 91%
01:00 +16°C° 0 mm 3 mps 748 mmHg 92%
02:00 +16°C° 0 mm 3 mps 748 mmHg 92%
03:00 +16°C° 0 mm 3 mps 748 mmHg 92%
04:00 +14°C° 0 mm 3 mps 748 mmHg 92%
05:00 +17°C° 0 mm 3 mps 748 mmHg 87%
06:00 +18°C° 0 mm 4 mps 748 mmHg 82%
07:00 +19°C° 0 mm 4 mps 748 mmHg 76%
08:00 +21°C° 0 mm 5 mps 748 mmHg 68%
09:00 +23°C° 0 mm 5 mps 748 mmHg 59%
10:00 +26°C° 0 mm 6 mps 748 mmHg 51%
11:00 +26°C° 0 mm 6 mps 747 mmHg 47%
12:00 +27°C° 0 mm 6 mps 747 mmHg 43%
13:00 +28°C° 0 mm 6 mps 747 mmHg 39%
14:00 +28°C° 0 mm 6 mps 747 mmHg 38%
15:00 +28°C° 0 mm 6 mps 747 mmHg 38%
16:00 +28°C° 0 mm 5 mps 746 mmHg 38%
17:00 +27°C° 0 mm 4 mps 746 mmHg 45%
18:00 +25°C° 0 mm 3 mps 746 mmHg 52%
19:00 +23°C° 0 mm 2 mps 746 mmHg 59%
20:00 +23°C° 0 mm 2 mps 746 mmHg 59%
21:00 +21°C° 0 mm 2 mps 746 mmHg 59%
22:00 +22°C° 0 mm 1 mps 746 mmHg 60%
23:00 +21°C° 0 mm 1 mps 746 mmHg 62%

30 July, Friday

Time Temperature Precipitation Wind Pressure Humidity
00:00 +21°C° 0 mm 1 mps 746 mmHg 63%
01:00 +19°C° 0 mm 2 mps 746 mmHg 65%
02:00 +19°C° 0 mm 1 mps 746 mmHg 68%
03:00 +19°C° 0 mm 1 mps 746 mmHg 71%
04:00 +18°C° 0 mm 1 mps 746 mmHg 73%
05:00 +19°C° 0 mm 1 mps 746 mmHg 70%
06:00 +19°C° 0 mm 2 mps 746 mmHg 66%
07:00 +20°C° 0 mm 2 mps 746 mmHg 62%
08:00 +21°C° 0 mm 3 mps 746 mmHg 57%
09:00 +24°C° 0 mm 3 mps 746 mmHg 52%
10:00 +25°C° 0 mm 4 mps 745 mmHg 47%
11:00 +26°C° 0 mm 4 mps 745 mmHg 44%
12:00 +27°C° 0 mm 5 mps 745 mmHg 41%
13:00 +28°C° 0 mm 5 mps 745 mmHg 38%
14:00 +28°C° 0 mm 5 mps 744 mmHg 38%
15:00 +28°C° 0 mm 5 mps 744 mmHg 37%
16:00 +28°C° 0 mm 5 mps 744 mmHg 37%
17:00 +27°C° 0 mm 4 mps 744 mmHg 44%
18:00 +25°C° 0 mm 3 mps 743 mmHg 50%
19:00 +23°C° 0 mm 2 mps 743 mmHg 57%
20:00 +21°C° 0 mm 2 mps 743 mmHg 57%
21:00 +20°C° 0 mm 2 mps 743 mmHg 58%
22:00 +19°C° 0 mm 2 mps 743 mmHg 58%
23:00 +20°C° 0 mm 1 mps 743 mmHg 58%

31 July, Saturday

Time Temperature Precipitation Wind Pressure Humidity
00:00 +20°C° 0 mm 1 mps 744 mmHg 58%
01:00 +18°C° 0 mm 0 mps 744 mmHg 58%
02:00 +20°C° 0 mm 1 mps 743 mmHg 58%
03:00 +20°C° 0 mm 1 mps 743 mmHg 58%
04:00 +19°C° 0 mm 2 mps 743 mmHg 58%
05:00 +20°C° 0 mm 2 mps 743 mmHg 58%
06:00 +21°C° 0 mm 3 mps 743 mmHg 58%
07:00 +22°C° 0 mm 3 mps 743 mmHg 58%
08:00 +23°C° 0 mm 4 mps 743 mmHg 56%
09:00 +25°C° 0 mm 5 mps 743 mmHg 53%
10:00 +26°C° 0 mm 6 mps 743 mmHg 51%
11:00 +26°C° 0 mm 6 mps 743 mmHg 50%
12:00 +26°C° 0 mm 7 mps 743 mmHg 49%
13:00 +26°C° 0 mm 7 mps 743 mmHg 48%
14:00 +24°C° 0 mm 6 mps 743 mmHg 46%
15:00 +24°C° 0 mm 6 mps 743 mmHg 44%
16:00 +24°C° 0 mm 6 mps 744 mmHg 43%
17:00 +23°C° 0 mm 5 mps 744 mmHg 46%
18:00 +22°C° 0 mm 5 mps 744 mmHg 50%
19:00 +21°C° 0 mm 4 mps 744 mmHg 53%
20:00 +20°C° 0 mm 4 mps 744 mmHg 57%
21:00 +19°C° 0 mm 3 mps 744 mmHg 60%
22:00 +17°C° 0 mm 3 mps 745 mmHg 64%
23:00 +17°C° 0 mm 3 mps 745 mmHg 67%

1 August, Sunday

Time Temperature Precipitation Wind Pressure Humidity
00:00 +16°C° 0 mm 3 mps 745 mmHg 71%
01:00 +16°C° 0 mm 3 mps 745 mmHg 74%
02:00 +14°C° 0 mm 3 mps 745 mmHg 77%
03:00 +14°C° 0 mm 3 mps 745 mmHg 81%
04:00 +13°C° 0 mm 3 mps 745 mmHg 84%
05:00 +16°C° 0 mm 3 mps 745 mmHg 80%
06:00 +17°C° 0 mm 4 mps 745 mmHg 75%
07:00 +18°C° 0 mm 4 mps 745 mmHg 71%
08:00 +20°C° 0 mm 4 mps 745 mmHg 65%
09:00 +21°C° 0 mm 4 mps 745 mmHg 59%
10:00 +22°C° 0 mm 5 mps 745 mmHg 53%
11:00 +23°C° 0 mm 5 mps 745 mmHg 50%
12:00 +23°C° 0 mm 5 mps 745 mmHg 47%
13:00 +25°C° 0 mm 5 mps 744 mmHg 44%
14:00 +23°C° 0 mm 4 mps 744 mmHg 48%
15:00 +24°C° 0 mm 3 mps 744 mmHg 51%
16:00 +23°C° 0 mm 2 mps 744 mmHg 55%
17:00 +21°C° 0 mm 2 mps 744 mmHg 57%
18:00 +21°C° 0 mm 2 mps 744 mmHg 60%
19:00 +20°C° 0 mm 2 mps 744 mmHg 63%
20:00 +19°C° 0 mm 2 mps 744 mmHg 66%
21:00 +18°C° 0 mm 3 mps 744 mmHg 69%
22:00 +17°C° 0 mm 3 mps 744 mmHg 72%
23:00 +17°C° 0 mm 3 mps 744 mmHg 77%
Show more